Skip Page Navigation
NASA JPL Caltech
NASA Logo - Jet Propulsion Laboratory + View the NASA Portal
+ Center for Near-Earth Object Studies
JPL Home Earth Solar System Stars & Galaxies Technology
JPL Solar System Dynamics
BODIES ORBITS EPHEMERIDES TOOLS PHYSICAL DATA DISCOVERY FAQ SITE MAP
IMPORTANT: The SSD Announcement email list is now available. Major changes are coming in the near future, including possible hostname and/or URL changes. To be notified of such changes, subscribe to this email list.

Please visit this page for more details.


JPL Small-Body Database Browser
Search: [ help ]  
351891 (2006 SZ216)
Classification: Main-belt Asteroid          SPK-ID: 2351891
Ephemeris | Orbit Diagram | Orbital Elements | Mission Design | Physical Parameters | Discovery Circumstances | Close-Approach Data ]

[ show orbit diagram ]
Orbital Elements at Epoch 2458600.5 (2019-Apr-27.0) TDB
Reference: JPL 9 (heliocentric ecliptic J2000)
 Element Value Uncertainty (1-sigma)   Units 
e .1089059079353789 9.8143e-08  
a 2.989814447599334 5.0865e-08 au
q 2.664205990625215 2.7238e-07 au
i 3.398451861979471 9.7024e-06 deg
node 59.44288085690016 0.0001604 deg
peri 13.37874686364813 0.00016964 deg
M 116.9212439310785 5.369e-05 deg
tp 2457987.224369582565
(2017-Aug-21.72436958)
0.00027759 TDB
period 1888.272990667283
5.17
4.8187e-05
1.319e-07
d
yr
n .1906503994810529 4.8652e-09 deg/d
Q 3.315422904573453 5.6404e-08 au
  Orbit Determination Parameters
   # obs. used (total)      114  
   data-arc span      4578 days (12.53 yr)  
   first obs. used      2006-09-19  
   last obs. used      2019-04-02  
   planetary ephem.      DE431  
   SB-pert. ephem.      SB431-N16  
   condition code      0  
   norm. resid. RMS      .60565  
   source      ORB  
   producer      Otto Matic  
   solution date      2019-Jul-14 08:14:18  

Additional Information
 Earth MOID = 1.67888 au 
 Jupiter MOID = 1.93455 au 
 T_jup = 3.245 
[ show covariance matrix ]

Ephemeris | Orbit Diagram | Orbital Elements | Mission Design | Physical Parameters | Discovery Circumstances | Close-Approach Data ]

Physical Parameter Table
Parameter Symbol Value Units Sigma Reference Notes
absolute magnitude H 17.0   n/a MPO434220  

351891 (2006 SZ216)          Discovered 2006-Sep-27 by Spacewatch at Kitt Peak
Reference: 20130127/Numbers.arcLast Updated: 2013-01-31

[ show close-approach data ]
Ephemeris | Orbit Diagram | Orbital Elements | Mission Design | Physical Parameters | Discovery Circumstances | Close-Approach Data ]
ABOUT SSD CREDITS/AWARDS PRIVACY/COPYRIGHT GLOSSARY LINKS
FirstGov
(server date/time)  
NASA Home Page
Site Manager:   Ryan S. Park
Webmaster  Alan B. Chamberlin